Location: Carr Mill
(33.2054°N, 85.9439°W)
Time: 00:16:08
(UTC+00:00)

CZ-4B R/B - Pass Details

Date: 29 October 2020
Orbit: 388 x 461 km, 97.6° (Epoch: 28 November)

Event Time Altitude Azimuth Distance (km) Brightness Sun altitude
Rises 23:22:55 0° 7° (N) 2,353 4.8 -6.6°
Reaches altitude 10° 23:24:57 10° 4° (N) 1,474 3.9 -7.0°
Maximum altitude 23:28:03 61° 283° (WNW) 458 1.8 -7.7°
Drops below altitude 10° 23:31:04 10° 202° (SSW) 1,432 4.4 -8.3°
Sets 23:33:00 0° 199° (SSW) 2,277 5.4 -8.7°
